Other Public Products
Issued by NWS Grand Forks, ND

Home | Current Version | Previous Version | Graphics & Text | Print | Product List | Glossary On
Versions: 1 2 3 4 5 6 7 8 9 10 11 12 13 14 15 16 17 18 19 20 21 22 23 24 25 26 27 28 29 30 31 32 33 34 35 36 37 38 39 40 41 42 43 44 45 46 47 48 49 50
000
FPUS83 KFGF 250631
OPUFGF
PRAIRIE TO PINES WEATHER ROUNDUP
NATIONAL WEATHER SERVICE EASTERN NORTH DAKOTA/GRAND FORKS ND
100 AM CDT SAT OCT 25 2014

 **SATELLITE DATA USED TO AUGMENT SKY COVER AT AUTOMATED STATIONS**
 *****  WEATHER ACROSS EASTERN NORTH DAKOTA  *****

CITY           SKY/WX    TMP DP  RH WIND       PRES   REMARKS
GRAND FORKS    CLEAR     47  35  63 W8        29.92R
6HR MIN TEMP:  47; 6HR MAX TEMP:  62;

GRAND FORKS AF CLEAR     49  35  57 NW10      29.93R
GRAND CITY NWS   N/A     46 N/A N/A W7          N/A
BUXTON         NOT AVBL
DEVILS LAKE    CLEAR     46  30  53 W15       29.96R
6HR MIN TEMP:  46; 6HR MAX TEMP:  57;

FARGO          PTCLDY    46  31  55 W9        29.97R
6HR MIN TEMP:  46; 6HR MAX TEMP:  66;

WAHPETON ARPT  CLOUDY    52  32  46 NW9       29.99S
$$

 *****  WEATHER ACROSS CENTRAL AND WESTERN NORTH DAKOTA  *****

CITY           SKY/WX    TMP DP  RH WIND       PRES   REMARKS
JAMESTOWN      CLEAR     45  33  63 NW8       30.00R
6HR MIN TEMP:  45; 6HR MAX TEMP:  57;

BISMARCK       MOCLDY    48  30  49 W9        30.07R
6HR MIN TEMP:  46; 6HR MAX TEMP:  62;

MINOT          CLEAR     44  29  55 W7        30.03R
6HR MIN TEMP:  43; 6HR MAX TEMP:  57;

MINOT AFB      CLEAR     38  30  73 W8        30.02R
6HR MIN TEMP:  38; 6HR MAX TEMP:  52;

GARRISON         N/A     46  30  53 W10       30.04R
6HR MIN TEMP:  43; 6HR MAX TEMP:  53;

WILLISTON      MOCLDY    44  26  49 W6        30.06S
6HR MIN TEMP:  39; 6HR MAX TEMP:  52;

DICKINSON      CLOUDY    46  32  58 W9        30.08S
6HR MIN TEMP:  42; 6HR MAX TEMP:  50;

HETTINGER      CLOUDY    48  32  53 CALM      30.12R
6HR MIN TEMP:  47; 6HR MAX TEMP:  54;

$$

 *****  OTHER OBSERVATIONS NORTHEAST NORTH DAKOTA  *****

CITY           SKY/WX    TMP DP  RH WIND       PRES   REMARKS
WALHALLA       FAIR      48  32  53 W13G20    29.91S
LANGDON        FAIR      41  32  70 W13       29.94R
CAVALIER       FAIR      50  32  50 NW16      29.91R
GRAFTON        FAIR      50  32  50 NW14G20   29.92R
CANDO          FAIR      39  32  75 W10       29.98R
FORT TOTTEN      N/A     48  33  55 NW7       29.95
ROLLA          FAIR      48  28  46 NW15G23   29.97R
RUGBY          FAIR      36  32  87 NW7       29.99S
 ***** THE ABOVE OBSERVATIONS ARE NON NWS ARE NOT QUALITY
        CONTROLLED AND MAY MIS-REPORT RAIN FOR SNOW...
$$

 *****  OTHER OBSERVATIONS SOUTHEAST NORTH DAKOTA *****

CITY           SKY/WX    TMP DP  RH WIND       PRES   REMARKS
COOPERSTOWN    NOT AVBL
VALLEY CITY    FAIR      45  34  65 W13       29.99F
OAKES            N/A     48  37  66 W9        30.02R
GWINNER        CLOUDY    54  34  47 NW13      30.01R
BUFFALO          N/A     44  30  57 W10         N/A
WYNDMERE         N/A     54  36  50 NW8         N/A
 ***** THE ABOVE OBSERVATIONS ARE NON NWS ARE NOT QUALITY
       CONTROLLED AND MAY MIS-REPORT RAIN FOR SNOW...
$$

  *****  WEATHER ACROSS NORTHERN MINNESOTA  *****

CITY           SKY/WX    TMP DP  RH WIND       PRES   REMARKS
FLAG ISLAND    CLEAR     52  36  54 W24G32    29.76R
WARROAD        CLEAR     46  36  66 W14       29.82R
ROSEAU         CLEAR     48  36  61 W12G18    29.83R
HALLOCK        CLEAR     48  32  53 W15G22    29.88S
THF RVR FALLS  CLEAR     48  32  53 W13       29.90R
6HR MIN TEMP:  48; 6HR MAX TEMP:  63;

HALSTAD          N/A     47  30  52 NW8         N/A
FOSSTON        CLEAR     45  32  61 W7        29.92R
BAUDETTE       CLEAR     52  32  46 W9G23     29.78R
6HR MIN TEMP:  52; 6HR MAX TEMP:  64;

WASKISH        CLEAR     52  39  62 W15       29.83R
CROOKSTON      CLEAR     46  36  66 W12       29.93R
$$
  *****  WEATHER ACROSS CENTRAL AND WEST MINNESOTA  *****

CITY           SKY/WX    TMP DP  RH WIND       PRES   REMARKS
BEMIDJI        CLEAR     51  33  49 W15       29.88R
PARK RAPIDS    CLEAR     53  32  44 NW17      29.90R
6HR MIN TEMP:  53; 6HR MAX TEMP:  60;

WADENA         CLEAR     52  34  50 W5        29.93R
DETROIT LAKES  CLEAR     52  32  46 NW13      29.96R
MOORHEAD       PTCLDY    52  28  40 W10       29.98R
FERGUS FALLS   PTCLDY    54  28  37 NW14      29.98R
ELBOW LAKE     FAIR      51  36  55 NW9       29.97R
6HR MIN TEMP:  51; 6HR MAX TEMP:  66;

MORRIS MN      PTCLDY    57  36  44 NW16      29.97R
STAPLES        CLEAR     52  32  46 W9        29.92R
WHEATON        MOCLDY    54  36  50 NW9       30.01S
$$
  *****  WEATHER ELSEWHERE ACROSS MINNESOTA  *****

CITY           SKY/WX    TMP DP  RH WIND       PRES   REMARKS
DULUTH         CLEAR     56  35  45 W13       29.79R
6HR MIN TEMP:  55; 6HR MAX TEMP:  62;

INTRNTL FALLS  CLEAR     53  33  46 W20G26    29.75R
6HR MIN TEMP:  52; 6HR MAX TEMP:  64;

ELY            CLEAR     54  34  47 W10G16    29.74S
CLOQUET        CLEAR     55  34  44 W10G16    29.82R
BRAINERD       CLEAR     53  33  46 W8        29.90R
6HR MIN TEMP:  53; 6HR MAX TEMP:  62;

HIBBING        CLEAR     57  33  40 W14G24    29.79R
6HR MIN TEMP:  48; 6HR MAX TEMP:  62;

ALEXANDRIA     PTCLDY    56  34  43 NW14      29.95R
6HR MIN TEMP:  56; 6HR MAX TEMP:  65;

SAINT CLOUD    PTCLDY    60  37  42 NW12      29.91R
6HR MIN TEMP:  54; 6HR MAX TEMP:  64;

MINNEAPOLIS    MOCLDY    58  44  60 W8        29.90R
6HR MIN TEMP:  57; 6HR MAX TEMP:  64;

$$

  *****  WEATHER ACROSS SOUTH DAKOTA  *****

CITY           SKY/WX    TMP DP  RH WIND       PRES   REMARKS
SIOUX FALLS    PTCLDY    52  45  77 CALM      30.01S
6HR MIN TEMP:  49; 6HR MAX TEMP:  61;

BROOKINGS      NOT AVBL
WATERTOWN      MOCLDY    54  42  64 NW6       30.03R
6HR MIN TEMP:  53; 6HR MAX TEMP:  61;

HURON          MOCLDY    51  39  63 CALM      30.05R
6HR MIN TEMP:  49; 6HR MAX TEMP:  60;

SISSETON         N/A     59  33  37 NW14      30.00R
ABERDEEN       MOCLDY    57  37  47 NW10      30.05R
6HR MIN TEMP:  57; 6HR MAX TEMP:  68;

MITCHELL       MOCLDY    50  39  66 NW8       30.05R
PIERRE         MOCLDY    55  37  50 N7        30.08R
6HR MIN TEMP:  54; 6HR MAX TEMP:  65;

MOBRIDGE       CLOUDY    55  38  52 CALM      30.05F
RAPID CITY     CLEAR     45  33  63 NW10      30.14R
6HR MIN TEMP:  42; 6HR MAX TEMP:  57;

$$

  *****  SOME WEATHER IN NEARBY STATES *****

CITY           SKY/WX    TMP DP  RH WIND       PRES   REMARKS
GLASGOW MT     MOCLDY    45  29  53 CALM      30.08R
6HR MIN TEMP:  38; 6HR MAX TEMP:  54;

GREAT FALLS MT CLOUDY    47  40  76 SE5       30.06F
6HR MIN TEMP:  47; 6HR MAX TEMP:  53; 6HR PCP: TRACE;

CHEYENNE WY    CLEAR     45  26  47 W5        30.24S
6HR MIN TEMP:  45; 6HR MAX TEMP:  66;

SCOTTSBLUFF NE CLEAR     47  32  56 CALM      30.13R
6HR MIN TEMP:  46; 6HR MAX TEMP:  70;

OMAHA NE       CLEAR     51  50  96 NW7       30.01S
6HR MIN TEMP:  49; 6HR MAX TEMP:  69;

DES MOINES IA  FOG       55  53  93 CALM      29.97S VSB 1
6HR MIN TEMP:  54; 6HR MAX TEMP:  63;

DAVENPORT IA   FOG       51  50  96 W7        29.95S VSB 1/4
6HR MIN TEMP:  51; 6HR MAX TEMP:  65;

CHICAGO IL     MOCLDY    59  50  72 SW6       29.91F
6HR MIN TEMP:  56; 6HR MAX TEMP:  62;

EAU CLAIRE WI  PTCLDY    49  48  97 W6        29.86R FOG
6HR MIN TEMP:  48; 6HR MAX TEMP:  57;

LA CROSSE WI   PTCLDY    56  54  93 S6        29.89S FOG
6HR MIN TEMP:  56; 6HR MAX TEMP:  60;

$$

  *****  SOME NATIONAL WEATHER *****

CITY           SKY/WX    TMP DP  RH WIND       PRES   REMARKS
LA GUARDIA NY  MOCLDY    56  37  49 NW13      29.85R



USA.gov is the U.S. government's official web portal to all federal, state and local government web resources and services.